Burlington, VT

3:29 PM EST on November 17, 2019 (GMT -0500)
Burlington International

Weather History for KBTV - September, 2019

Change the Weather History Date:

Wednesday, September 25, 2019

  Actual Average Record
Temperature  
Mean Temperature 63 °F 57 °F  
Max Temperature 70 °F 66 °F 92 °F (2017)
Min Temperature 55 °F 47 °F 28 °F (1963)
Degree Days  
Heating Degree Days 2 9  
Month to date heating degree days 75 124  
Since 1 July heating degree days 79 166  
Cooling Degree Days 0 0  
Month to date cooling degree days 22 41  
Year to date cooling degree days 602 489  
Growing Degree Days 12 (Base 50)    
Moisture  
Dew Point 51 °F    
Average Humidity 68    
Maximum Humidity 87    
Minimum Humidity 49    
Precipitation  
Precipitation 0.00 in 0.14 in 1.51 in (1945)
Month to date precipitation 3.25 3.00  
Year to date precipitation 29.54 27.07  
Sea Level Pressure  
Sea Level Pressure 29.83 in    
Wind  
Wind Speed 5 mph (SSW)    
Max Wind Speed 16 mph    
Max Gust Speed 23 mph    
Visibility 10 miles    
Events      
T = Trace of Precipitation, MM = Missing Value Source: NWS Daily Summary

Daily Weather History Graph

Daily Weather History Graph

Search for Another Location

Airport or City:

Astronomy

Sep. 25, 2019 Rise Set
Actual Time 6:42 AM EDT 6:44 PM EDT
Civil Twilight 6:13 AM EDT 7:13 PM EDT
Nautical Twilight 5:39 AM EDT 7:47 PM EDT
Astronomical Twilight 5:05 AM EDT 8:22 PM EDT
Moon 2:20 AM EDT (9/25) 5:25 PM EDT (9/25)
Length of Visible Light 12h 59m
Length of Day
12h 01m
Waning Crescent, 14% of the Moon is Illuminated
Sep 25
Waning Crescent
Sep 28
New
Oct 5
First Quarter
Oct 13
Full
Oct 21
Last Quarter

Hourly Weather History & Observations

Time (EDT) Temp. Dew Point Humidity Pressure Visibility Wind Dir Wind Speed Gust Speed Precip Events Conditions
12:54 AM 57.0 °F 51.1 °F 81% 29.84 in 10.0 mi NW 3.5 mph - N/A   Overcast
1:54 AM 57.0 °F 50.0 °F 77% 29.84 in 10.0 mi NW 4.6 mph - N/A   Overcast
2:17 AM 57.0 °F 51.1 °F 81% 29.83 in 10.0 mi NW 3.5 mph - N/A   Overcast
2:54 AM 57.0 °F 51.1 °F 81% 29.83 in 10.0 mi Calm Calm - N/A   Overcast
3:27 AM 55.9 °F 52.0 °F 87% 29.82 in 10.0 mi Calm Calm - N/A   Overcast
3:54 AM 57.0 °F 52.0 °F 83% 29.84 in 10.0 mi Calm Calm - N/A   Overcast
4:07 AM 57.0 °F 52.0 °F 83% 29.85 in 10.0 mi Calm Calm - N/A   Overcast
4:39 AM 57.0 °F 52.0 °F 83% 29.85 in 10.0 mi Calm Calm - N/A   Overcast
4:54 AM 55.9 °F 52.0 °F 87% 29.86 in 10.0 mi Calm Calm - N/A   Overcast
5:04 AM 55.9 °F 52.0 °F 87% 29.86 in 10.0 mi Calm Calm - N/A   Mostly Cloudy
5:54 AM 55.9 °F 52.0 °F 87% 29.86 in 10.0 mi Calm Calm - N/A   Mostly Cloudy
6:54 AM 55.9 °F 52.0 °F 87% 29.88 in 10.0 mi Calm Calm - N/A   Mostly Cloudy
7:54 AM 55.9 °F 52.0 °F 87% 29.90 in 10.0 mi Calm Calm - N/A   Overcast
8:54 AM 57.9 °F 51.1 °F 78% 29.90 in 10.0 mi Calm Calm - N/A   Mostly Cloudy
9:25 AM 57.9 °F 52.0 °F 81% 29.89 in 10.0 mi Calm Calm - N/A   Mostly Cloudy
9:54 AM 60.1 °F 51.1 °F 72% 29.89 in 10.0 mi Calm Calm - N/A   Mostly Cloudy
10:54 AM 61.0 °F 50.0 °F 67% 29.89 in 10.0 mi WSW 4.6 mph - N/A   Mostly Cloudy
11:54 AM 64.0 °F 46.9 °F 54% 29.87 in 10.0 mi Calm Calm - N/A   Mostly Cloudy
12:54 PM 66.0 °F 48.0 °F 52% 29.84 in 10.0 mi Variable 4.6 mph - N/A   Scattered Clouds
1:54 PM 66.0 °F 48.0 °F 52% 29.82 in 10.0 mi South 5.8 mph - N/A   Scattered Clouds
2:54 PM 68.0 °F 48.0 °F 49% 29.80 in 10.0 mi SSE 5.8 mph - N/A   Scattered Clouds
3:54 PM 69.1 °F 48.9 °F 49% 29.78 in 10.0 mi South 9.2 mph - N/A   Scattered Clouds
4:54 PM 69.1 °F 50.0 °F 51% 29.77 in 10.0 mi South 9.2 mph - N/A   Scattered Clouds
5:54 PM 68.0 °F 51.1 °F 55% 29.78 in 10.0 mi South 8.1 mph - N/A   Partly Cloudy
6:54 PM 64.0 °F 51.1 °F 63% 29.78 in 10.0 mi SSE 4.6 mph - N/A   Partly Cloudy
7:54 PM 62.1 °F 51.1 °F 67% 29.78 in 10.0 mi South 3.5 mph - N/A   Clear
8:54 PM 62.1 °F 51.1 °F 67% 29.78 in 10.0 mi Variable 3.5 mph - N/A   Clear
9:54 PM 64.0 °F 51.1 °F 63% 29.77 in 10.0 mi South 9.2 mph - N/A   Clear
10:54 PM 64.9 °F 51.1 °F 61% 29.77 in 10.0 mi South 11.5 mph - N/A   Partly Cloudy
11:54 PM 64.9 °F 52.0 °F 63% 29.75 in 10.0 mi South 11.5 mph - N/A   Scattered Clouds